User: anonymous   Login
Location: Caltech
(34.1382°N, 118.1253°W)
Time: 10:13:29
(UTC-07:00)
Language:

Cosmos 2219 Rocket - Orbit

View from above orbital plane
View from above orbital plane
View from above satellite
View from above satellite

Ground track
Ground track

The orbit data is extracted from the following two-line orbital elements,

1 22220U 92076B   16208.90661214  .00000229  00000-0  13936-3 0  9996
2 22220  71.0000  23.9379 0011390  41.5005  61.6914 14.16399667224715
Epoch (UTC): 26 July 2016 21:45:31
Eccentricity: 0.0011390
inclination: 71.0000°
perigee height: 829 km
apogee height: 846 km
right ascension of ascending node: 23.9379°
argument of perigee: 41.5005°
revolutions per day: 14.16399667
mean anomaly at epoch: 61.6914°
orbit number at epoch: 22471

The dashed part of the orbit path shows where the satellite is in the earth's shadow,  

DLR